FW7499 Weather Reports


time (UTC)temp
C
wind
direction
speed
KPH
gust
KPH
rain 1hr
cm
rain 24hr
cm
rain mn
cm
humidity
%
barometer
mb
20260506200017 16 306 4.8 17.7 0.00 0.00 0.00 35 1017.9
20260506195507 15 333 4.8 17.7 0.00 0.00 0.00 36 1017.9
20260506195006 15 355 8.0 17.7 0.00 0.00 0.00 33 1017.9
20260506194522 14 355 3.2 8.0 0.00 0.00 0.00 34 1018.0
20260506194009 14 338 3.2 14.5 0.00 0.00 0.00 35 1018.0
20260506193507 14 344 6.4 14.5 0.00 0.00 0.00 32 1018.0
20260506193021 14 331 6.4 16.1 0.00 0.00 0.00 34 1018.1
20260506192510 15 266 6.4 19.3 0.00 0.00 0.00 32 1018.0
20260506192008 16 335 9.7 19.3 0.00 0.00 0.00 34 1018.1
20260506191510 15 331 4.8 16.1 0.00 0.00 0.00 38 1018.1
20260506191004 15 310 4.8 17.7 0.00 0.00 0.00 42 1018.2
20260506190503 13 310 3.2 19.3 0.00 0.00 0.00 36 1018.2
20260506190016 14 315 11.3 19.3 0.00 0.00 0.00 35 1018.3
20260506185503 15 360 4.8 14.5 0.00 0.00 0.00 35 1018.3
20260506185003 15 309 4.8 14.5 0.00 0.00 0.00 36 1018.3
20260506184512 15 332 4.8 11.3 0.00 0.00 0.00 36 1018.4
20260506184005 15 238 4.8 17.7 0.00 0.00 0.00 35 1018.5
20260506183508 14 329 4.8 17.7 0.00 0.00 0.00 36 1018.5
20260506183005 15 315 4.8 16.1 0.00 0.00 0.00 36 1018.5
20260506182503 14 330 4.8 16.1 0.00 0.00 0.00 37 1018.6
20260506182005 15 323 6.4 17.7 0.00 0.00 0.00 40 1018.6
20260506181504 13 119 3.2 17.7 0.00 0.00 0.00 35 1018.5
20260506181004 15 321 8.0 17.7 0.00 0.00 0.00 38 1018.5
20260506180504 14 320 4.8 17.7 0.00 0.00 0.00 41 1018.9
20260506180005 13 306 6.4 14.5 0.00 0.00 0.00 38 1018.8
20260506175506 13 318 4.8 12.9 0.00 0.00 0.00 42 1018.9
20260506175005 12 5 4.8 16.1 0.00 0.00 0.00 37 1018.9
20260506174517 12 349 3.2 16.1 0.00 0.00 0.00 38 1018.9
20260506174002 13 332 6.4 14.5 0.00 0.00 0.00 39 1019.0
20260506173505 13 347 3.2 14.5 0.00 0.00 0.00 39 1019.1
20260506173015 13 323 6.4 17.7 0.00 0.00 0.00 43 1019.2
20260506172504 12 312 4.8 17.7 0.00 0.00 0.00 40 1019.3
20260506172003 13 330 4.8 17.7 0.00 0.00 0.00 42 1019.4
20260506171511 13 326 0.0 12.9 0.00 0.00 0.00 39 1019.4
20260506171003 12 238 3.2 11.3 0.00 0.00 0.00 37 1019.4
20260506170505 12 227 1.6 14.5 0.00 0.00 0.00 42 1019.6
20260506170007 11 140 4.8 14.5 0.00 0.00 0.00 37 1019.6
20260506165504 12 305 3.2 11.3 0.00 0.00 0.00 37 1019.5
20260506165005 13 309 1.6 12.9 0.00 0.00 0.00 38 1019.5
20260506164506 11 169 3.2 19.3 0.00 0.00 0.00 37 1019.6
20260506164009 12 317 8.0 19.3 0.00 0.00 0.00 37 1019.7
20260506163512 13 350 4.8 19.3 0.00 0.00 0.00 38 1019.7
20260506163008 12 330 3.2 20.9 0.00 0.00 0.00 42 1019.7
20260506162507 11 330 3.2 20.9 0.00 0.00 0.00 38 1019.7
20260506162013 12 261 1.6 11.3 0.00 0.00 0.00 37 1019.7
20260506161511 11 331 6.4 11.3 0.00 0.00 0.00 42 1019.7
20260506161003 11 311 4.8 11.3 0.00 0.00 0.00 39 1019.7
20260506160506 12 311 3.2 11.3 0.00 0.00 0.00 45 1019.6
20260506160006 12 5 3.2 12.9 0.00 0.00 0.00 43 1019.6
20260506155503 11 310 4.8 12.9 0.00 0.00 0.00 43 1019.5
20260506155004 12 344 4.8 17.7 0.00 0.00 0.00 41 1019.5
20260506154510 11 215 3.2 17.7 0.00 0.00 0.00 44 1019.5
20260506154004 11 351 4.8 17.7 0.00 0.00 0.00 43 1019.5
20260506153505 11 306 4.8 11.3 0.00 0.00 0.00 43 1019.5
20260506153013 11 311 4.8 9.7 0.00 0.00 0.00 43 1019.6
20260506152505 11 328 3.2 11.3 0.00 0.00 0.00 41 1019.5
20260506152005 11 303 4.8 11.3 0.00 0.00 0.00 45 1019.5
20260506151517 11 336 3.2 8.0 0.00 0.00 0.00 42 1019.6
20260506151009 11 334 1.6 6.4 0.00 0.00 0.00 46 1019.6
20260506150507 11 339 3.2 8.0 0.00 0.00 0.00 45 1019.6
20260506150007 11 355 1.6 12.9 0.00 0.00 0.00 44 1019.6
20260506145505 11 297 4.8 12.9 0.00 0.00 0.00 45 1019.6
20260506145010 11 321 3.2 11.3 0.00 0.00 0.00 47 1019.6
20260506144506 10 316 3.2 11.3 0.00 0.00 0.00 49 1019.6
20260506144006 10 348 1.6 8.0 0.00 0.00 0.00 46 1019.5
20260506143504 10 320 1.6 8.0 0.00 0.00 0.00 47 1019.6
20260506143012 10 303 1.6 4.8 0.00 0.00 0.00 51 1019.5
20260506142505 10 346 0.0 4.8 0.00 0.00 0.00 54 1019.5
20260506142005 9 346 0.0 4.8 0.00 0.00 0.00 51 1019.5
20260506141511 9 350 1.6 4.8 0.00 0.00 0.00 48 1019.5
20260506141006 9 347 1.6 6.4 0.00 0.00 0.00 51 1019.4
20260506140507 8 334 3.2 6.4 0.00 0.00 0.00 49 1019.4
20260506140022 8 242 0.0 4.8 0.00 0.00 0.00 52 1019.3
20260506135507 8 340 1.6 11.3 0.00 0.00 0.00 53 1019.3
20260506135006 8 331 3.2 11.3 0.00 0.00 0.00 52 1019.3
20260506134514 7 343 3.2 6.4 0.00 0.00 0.00 54 1019.2
20260506134010 7 309 1.6 8.0 0.00 0.00 0.00 56 1019.2
20260506133507 7 305 4.8 8.0 0.00 0.00 0.00 55 1019.1
20260506133018 7 309 3.2 8.0 0.00 0.00 0.00 54 1019.2
20260506132509 7 346 3.2 8.0 0.00 0.00 0.00 56 1019.1
20260506132007 7 348 1.6 8.0 0.00 0.00 0.00 56 1019.0
20260506131517 6 346 1.6 6.4 0.00 0.00 0.00 58 1018.9
20260506131006 6 322 3.2 6.4 0.00 0.00 0.00 59 1018.8
20260506130509 6 327 3.2 6.4 0.00 0.00 0.00 59 1018.8
20260506130020 6 298 3.2 4.8 0.00 0.00 0.00 60 1018.8
20260506125505 6 345 1.6 4.8 0.00 0.00 0.00 62 1018.8
20260506125007 6 344 1.6 4.8 0.00 0.00 0.00 64 1018.8
20260506124519 5 344 0.0 4.8 0.00 0.00 0.00 64 1018.8
20260506124010 5 344 0.0 6.4 0.00 0.00 0.00 63 1018.6
20260506123507 5 346 1.6 6.4 0.00 0.00 0.00 63 1018.5
20260506123015 5 341 1.6 4.8 0.00 0.00 0.00 65 1018.5
20260506122507 5 341 1.6 4.8 0.00 0.00 0.00 66 1018.4
20260506122006 4 341 0.0 3.2 0.00 0.00 0.00 68 1018.3
20260506121510 3 341 0.0 3.2 0.00 0.00 0.00 69 1018.3
20260506121004 3 341 0.0 3.2 0.00 0.00 0.00 71 1018.2
20260506120507 2 341 0.0 3.2 0.00 0.00 0.00 72 1018.1
20260506120028 2 341 0.0 1.6 0.00 0.00 0.00 72 1018.0
20260506115506 2 341 0.0 0.0 0.00 0.00 0.00 70 1017.9
20260506115006 2 341 0.0 0.0 0.00 0.00 0.00 70 1017.9
20260506114521 2 341 0.0 0.0 0.00 0.00 0.00 70 1017.8
20260506114007 2 341 0.0 0.0 0.00 0.00 0.00 70 1017.8
20260506113508 2 341 0.0 0.0 0.00 0.00 0.00 70 1017.7
20260506113024 2 341 0.0 0.0 0.00 0.00 0.00 70 1017.6
20260506112509 2 341 0.0 0.0 0.00 0.00 0.00 69 1017.6
20260506112007 2 341 0.0 0.0 0.00 0.00 0.00 70 1017.6
20260506111526 2 341 0.0 0.0 0.00 0.00 0.00 70 1017.6
20260506111007 2 341 0.0 0.0 0.00 0.00 0.00 69 1017.6
20260506110509 2 341 0.0 0.0 0.00 0.00 0.00 68 1017.5
20260506110022 3 341 0.0 0.0 0.00 0.00 0.00 66 1017.6
20260506105511 3 341 0.0 0.0 0.00 0.00 0.00 66 1017.7
20260506105007 3 341 0.0 0.0 0.00 0.00 0.00 66 1017.6
20260506104518 3 341 0.0 0.0 0.00 0.00 0.00 66 1017.6
20260506104007 3 341 0.0 0.0 0.00 0.00 0.00 67 1017.6
20260506103510 3 341 0.0 0.0 0.00 0.00 0.00 67 1017.5
20260506103018 3 341 0.0 0.0 0.00 0.00 0.00 66 1017.4
20260506102508 3 341 0.0 0.0 0.00 0.00 0.00 65 1017.4
20260506102011 3 341 0.0 0.0 0.00 0.00 0.00 65 1017.3
20260506101508 3 341 0.0 0.0 0.00 0.00 0.00 66 1017.3
20260506101005 3 341 0.0 0.0 0.00 0.00 0.00 65 1017.2
20260506100503 3 341 0.0 0.0 0.00 0.00 0.00 64 1017.2
20260506100023 4 341 0.0 0.0 0.00 0.00 0.00 63 1017.2
20260506095503 4 341 0.0 0.0 0.00 0.00 0.00 63 1017.2
20260506095004 4 341 0.0 1.6 0.00 0.00 0.00 64 1017.1
20260506094508 4 341 0.0 1.6 0.00 0.00 0.00 64 1017.1
20260506094006 4 341 0.0 1.6 0.00 0.00 0.00 62 1017.1
20260506093507 5 341 0.0 1.6 0.00 0.00 0.00 62 1017.1
20260506093005 5 341 0.0 1.6 0.00 0.00 0.00 61 1017.1
20260506092506 5 341 0.0 1.6 0.00 0.00 0.00 61 1017.0
20260506092006 5 341 0.0 1.6 0.00 0.00 0.00 61 1016.9
20260506091506 5 341 0.0 1.6 0.00 0.00 0.00 61 1016.9
20260506091004 5 341 0.0 0.0 0.00 0.00 0.00 60 1016.8
20260506090502 5 341 0.0 1.6 0.00 0.00 0.00 60 1016.8
20260506090007 5 341 0.0 1.6 0.00 0.00 0.00 59 1016.7
20260506085503 5 341 0.0 1.6 0.00 0.00 0.00 59 1016.7
20260506085004 6 341 0.0 1.6 0.00 0.00 0.00 58 1016.7
20260506084513 6 341 0.0 1.6 0.00 0.00 0.00 59 1016.6
20260506084003 6 341 0.0 1.6 0.00 0.00 0.00 58 1016.5
20260506083504 6 341 0.0 3.2 0.00 0.00 0.00 57 1016.5
20260506083018 6 341 0.0 3.2 0.00 0.00 0.00 56 1016.4
20260506082505 6 341 0.0 3.2 0.00 0.00 0.00 56 1016.4
20260506082003 6 341 0.0 3.2 0.00 0.00 0.00 56 1016.4
20260506081510 6 341 0.0 3.2 0.00 0.00 0.00 55 1016.3
20260506081006 6 341 0.0 3.2 0.00 0.00 0.00 55 1016.3
20260506080508 6 341 0.0 3.2 0.00 0.00 0.00 56 1016.4
20260506073509 6 341 0.0 3.2 0.00 0.00 0.00 55 1016.0
20260506073007 6 341 0.0 1.6 0.00 0.00 0.00 55 1016.1
20260506072509 7 341 0.0 3.2 0.00 0.00 0.00 54 1016.1
20260506072008 7 341 0.0 3.2 0.00 0.00 0.00 52 1016.0
20260506071522 7 341 0.0 3.2 0.00 0.00 0.00 51 1016.0
20260506071003 7 341 0.0 4.8 0.00 0.00 0.00 52 1016.0
20260506070504 7 340 0.0 4.8 0.00 0.00 0.00 49 1016.1
20260506062505 7 341 0.0 3.2 0.00 0.03 0.00 47 1016.0
20260506062011 7 341 0.0 4.8 0.00 0.03 0.00 49 1016.0
20260506061508 7 341 0.0 6.4 0.00 0.03 0.00 46 1016.0
20260506061003 7 340 1.6 6.4 0.00 0.05 0.00 46 1016.0
20260506060506 7 344 0.0 4.8 0.00 0.05 0.00 48 1016.0
20260506051006 8 344 1.6 4.8 0.00 0.05 0.00 46 1015.6
20260506050502 8 340 0.0 3.2 0.00 0.05 0.00 47 1015.5
20260506045005 8 340 0.0 3.2 0.00 0.05 0.05 48 1015.2
20260506044510 8 340 0.0 3.2 0.00 0.05 0.05 48 1015.1
20260506044007 8 340 0.0 4.8 0.00 0.05 0.05 45 1015.1
20260506043509 8 340 0.0 4.8 0.00 0.05 0.05 45 1015.2
20260506043024 8 339 1.6 3.2 0.00 0.05 0.05 44 1015.2
20260506042503 8 339 0.0 3.2 0.00 0.05 0.05 46 1015.2
20260506042010 8 339 0.0 3.2 0.00 0.05 0.05 47 1015.1
20260506041518 8 339 0.0 4.8 0.00 0.05 0.05 47 1015.0
20260506041002 9 339 1.6 4.8 0.00 0.05 0.05 46 1015.0
20260506040505 9 350 0.0 4.8 0.00 0.05 0.05 45 1015.0
20260506040032 9 350 0.0 4.8 0.00 0.05 0.05 45 1015.0
20260506035506 9 350 0.0 4.8 0.00 0.05 0.05 43 1015.0
20260506035007 9 350 0.0 4.8 0.00 0.05 0.05 42 1015.1
20260506034515 9 350 1.6 6.4 0.00 0.05 0.05 42 1014.9
20260506034011 9 355 1.6 6.4 0.00 0.05 0.05 41 1014.9
20260506033506 10 342 1.6 6.4 0.00 0.05 0.05 42 1014.8
20260506033020 10 345 1.6 6.4 0.00 0.05 0.05 41 1014.7
20260506032508 10 346 1.6 6.4 0.00 0.05 0.05 41 1014.6
20260506032007 10 346 1.6 6.4 0.00 0.05 0.05 42 1014.5
20260506031516 10 338 1.6 4.8 0.00 0.05 0.05 42 1014.5
20260506031008 10 345 0.0 6.4 0.00 0.05 0.05 41 1014.4
20260506030510 10 349 1.6 6.4 0.00 0.05 0.05 40 1014.3
20260506030026 10 5 1.6 8.0 0.00 0.05 0.05 40 1014.3
20260506025506 10 333 1.6 8.0 0.00 0.05 0.05 40 1014.2
20260506025007 10 347 0.0 6.4 0.00 0.05 0.05 41 1014.2
20260506024517 10 350 0.0 12.9 0.00 0.05 0.05 40 1014.1
20260506024009 10 336 4.8 12.9 0.00 0.05 0.05 39 1014.1
20260506023508 10 342 3.2 11.3 0.00 0.05 0.05 39 1014.0
20260506023028 10 360 1.6 9.7 0.00 0.05 0.05 40 1014.0
20260506022505 10 301 3.2 9.7 0.00 0.05 0.05 40 1014.0
20260506022008 10 330 3.2 12.9 0.00 0.05 0.05 39 1014.0
20260506021531 10 311 3.2 12.9 0.00 0.05 0.05 39 1013.8
20260506021008 10 343 1.6 12.9 0.00 0.05 0.05 38 1013.7
20260506020507 10 318 3.2 14.5 0.00 0.05 0.05 38 1013.7
20260506020016 10 332 6.4 14.5 0.00 0.05 0.05 37 1013.7
20260506015510 10 326 6.4 14.5 0.00 0.05 0.05 38 1013.6
20260506015010 11 333 6.4 14.5 0.00 0.05 0.05 38 1013.6
20260506014519 11 338 4.8 9.7 0.00 0.05 0.05 38 1013.4
20260506014009 11 335 3.2 8.0 0.00 0.05 0.05 38 1013.3
20260506013508 11 355 3.2 12.9 0.00 0.05 0.05 38 1013.3
20260506013013 11 344 4.8 14.5 0.00 0.05 0.05 39 1013.2
20260506012507 11 326 4.8 14.5 0.00 0.05 0.05 38 1013.2
20260506012004 11 347 4.8 14.5 0.00 0.05 0.05 39 1013.2
20260506011521 11 302 3.2 14.5 0.00 0.05 0.05 38 1013.2
20260506011010 11 5 6.4 14.5 0.00 0.05 0.05 37 1013.1
20260506010511 11 322 6.4 20.9 0.00 0.05 0.05 38 1013.1
20260506010042 11 9 3.2 20.9 0.00 0.05 0.05 38 1013.1
20260506005506 11 349 9.7 20.9 0.00 0.05 0.05 37 1013.1
20260506005008 11 319 8.0 20.9 0.00 0.05 0.05 36 1013.1
20260506004526 11 360 6.4 19.3 0.00 0.05 0.05 37 1013.0
20260506004007 11 5 8.0 19.3 0.00 0.05 0.05 37 1013.0
20260506003506 11 5 6.4 17.7 0.00 0.05 0.05 37 1012.9
20260506003026 11 5 4.8 14.5 0.00 0.05 0.05 39 1012.9
20260506002510 11 315 3.2 14.5 0.00 0.05 0.05 39 1012.9
20260506002008 11 299 6.4 14.5 0.00 0.05 0.05 38 1012.9
20260506001520 11 337 3.2 16.1 0.00 0.05 0.05 38 1012.8
20260506001009 11 5 6.4 17.7 0.00 0.05 0.05 39 1012.8
20260506000510 12 340 3.2 17.7 0.00 0.05 0.05 38 1012.8
20260506000020 12 330 3.2 17.7 0.00 0.05 0.05 39 1012.7
20260505235510 12 337 4.8 17.7 0.00 0.05 0.05 37 1012.7
20260505235008 12 338 4.8 17.7 0.00 0.05 0.05 37 1012.7
20260505234539 12 315 6.4 17.7 0.00 0.05 0.05 38 1012.7
20260505234012 12 341 4.8 25.7 0.00 0.05 0.05 37 1012.7
20260505233505 12 313 11.3 25.7 0.00 0.05 0.05 37 1012.6
20260505233035 12 321 8.0 22.5 0.00 0.05 0.05 38 1012.6
20260505232511 12 355 6.4 17.7 0.00 0.05 0.05 38 1012.4
20260505232009 12 333 4.8 14.5 0.00 0.05 0.05 38 1012.5
20260505231531 12 346 4.8 14.5 0.00 0.05 0.05 37 1012.4
20260505231009 12 341 6.4 16.1 0.00 0.05 0.05 36 1012.3
20260505230505 13 320 6.4 16.1 0.00 0.05 0.05 38 1012.3
20260505230022 13 315 4.8 19.3 0.00 0.05 0.05 39 1012.3
20260505225510 13 313 6.4 19.3 0.00 0.05 0.05 39 1012.3
20260505225011 13 335 4.8 16.1 0.00 0.05 0.05 38 1012.2
20260505224523 13 329 4.8 14.5 0.00 0.05 0.05 37 1012.2
20260505224010 13 341 4.8 14.5 0.00 0.05 0.05 37 1012.2
20260505223519 13 16 6.4 14.5 0.00 0.05 0.05 36 1012.2
20260505223023 13 338 6.4 29.0 0.00 0.05 0.05 37 1012.2
20260505222513 13 336 8.0 29.0 0.00 0.05 0.05 36 1012.1
20260505222009 13 5 8.0 19.3 0.00 0.05 0.05 37 1012.1
20260505221523 13 307 8.0 19.3 0.00 0.05 0.05 37 1012.1
20260505221013 13 327 8.0 16.1 0.00 0.05 0.05 37 1012.1
20260505220508 13 318 9.7 16.1 0.00 0.05 0.05 38 1012.1
20260505220028 13 326 6.4 14.5 0.00 0.05 0.05 38 1012.0
20260505215509 13 306 6.4 12.9 0.00 0.05 0.05 39 1012.0
20260505215008 13 345 4.8 17.7 0.00 0.05 0.05 39 1012.1
20260505214544 13 319 8.0 17.7 0.00 0.05 0.05 39 1012.1
20260505214012 13 341 6.4 17.7 0.00 0.05 0.05 38 1012.1
20260505213509 13 276 6.4 17.7 0.00 0.05 0.05 37 1012.1
20260505213025 13 334 4.8 17.7 0.00 0.05 0.05 41 1012.2
20260505212515 13 311 4.8 17.7 0.00 0.05 0.05 40 1012.2
20260505212012 13 303 3.2 17.7 0.00 0.05 0.05 39 1012.3
20260505211526 13 315 8.0 22.5 0.00 0.05 0.05 38 1012.5
20260505211006 13 311 9.7 22.5 0.00 0.05 0.05 39 1012.5
20260505210507 13 277 8.0 19.3 0.00 0.05 0.05 39 1012.5
20260505210011 13 314 6.4 19.3 0.00 0.05 0.05 40 1012.5
20260505205506 13 300 4.8 16.1 0.00 0.05 0.05 41 1012.6
20260505205009 13 329 6.4 24.1 0.00 0.05 0.05 40 1012.6
20260505204509 13 332 6.4 24.1 0.00 0.05 0.05 40 1012.6
20260505204007 14 292 4.8 20.9 0.00 0.05 0.05 40 1012.7
20260505203508 14 338 11.3 20.9 0.00 0.05 0.05 37 1012.7
20260505203032 15 340 8.0 20.9 0.00 0.05 0.05 38 1012.6
20260505202506 15 301 4.8 16.1 0.00 0.05 0.05 37 1012.7
20260505202003 15 350 6.4 16.1 0.00 0.05 0.05 38 1012.7
20260505201515 15 355 3.2 16.1 0.00 0.05 0.05 38 1012.8
20260505201007 14 340 3.2 12.9 0.00 0.05 0.05 42 1012.8
20260505200503 15 285 3.2 12.9 0.00 0.05 0.05 38 1012.8